Sich 1 Rocket - Orbit

View from above orbital plane
View from above orbital plane
View from above satellite
View from above satellite

Ground track
Ground track

The orbit data is extracted from the following two-line orbital elements,

1 23659U 95046C   13145.80389640  .00000318  00000-0  41135-4 0  6134
2 23659 082.5317 241.1969 0026718 047.2222 099.5818 14.77479229955447
Epoch (UTC): 25 May 2013 19:17:36
Eccentricity: 0.0026718
inclination: 82.5317°
perigee height: 618 km
apogee height: 656 km
right ascension of ascending node: 241.1969°
argument of perigee: 47.2222°
revolutions per day: 14.77479229
mean anomaly at epoch: 99.5818°
orbit number at epoch: 95544

The dashed part of the orbit path shows where the satellite is in the earth's shadow,  

Developed and maintained by Chris Peat, Heavens-Above GmbH. Please read the updated FAQ before sending e-mail. Imprint. DLR